Tracking 23764 objects as of 18-Oct-2021
HD Live streaming from Space Station
objects crossing your sky now

THEA

Track THEA now!
10-day predictions


NORAD ID: 43796
Int'l Code: 2018-099AQ
Perigee: 574.9 km
Apogee: 594.9 km
Inclination: 97.7 °
Period: 96.2 minutes
Semi major axis: 6955 km
RCS: Unknown
Launch date: December 3, 2018
Source: United States (US)
Launch site: AIR FORCE WESTERN TEST RANGE (AFWTR)
aabbcc
Your satellite tracking list
Your tracking list is empty




NASA's NSSDC Master Catalog

Two Line Element Set (TLE):
1 43796U 18099AQ  21290.13880867  .00001271  00000-0  11680-3 0  9991
2 43796  97.6553 359.1202 0014411 352.7360   7.3650 14.96489082156728
Source of the keplerian elements: AFSPC